Location: Morgantown
(40.9734°N, 80.6323°W)
Time: 13:26:41
(UTC+00:00)

AO-73 - Visible Passes

Search period start: 24 September 2021 00:00
Search period end: 04 October 2021 00:00
Orbit: 581 x 661 km, 97.6° (Epoch: 23 September)

Date Brightness Start Highest point End Pass type
(mag) Time Alt. Az. Time Alt. Az. Time Alt. Az.
24 Sep ? 09:46:07 10° NNE 09:50:15 51° E 09:54:17 10° S visible
25 Sep ? 10:03:42 10° NNE 10:07:57 83° ESE 10:12:05 10° S visible
26 Sep ? 08:48:10 10° ENE 08:48:59 10° E 08:49:49 10° E visible
26 Sep ? 10:21:25 10° N 10:25:36 61° WNW 10:29:40 10° SSW visible
27 Sep ? 09:04:06 10° NE 09:06:51 17° E 09:09:34 10° SE visible
27 Sep ? 10:39:18 10° N 10:43:11 38° WNW 10:47:00 10° SW visible
28 Sep ? 09:21:08 10° NE 09:24:40 26° E 09:28:09 10° SSE visible
29 Sep ? 09:38:27 10° NNE 09:42:26 41° E 09:46:19 10° S visible
30 Sep ? 09:55:58 10° NNE 10:00:08 68° E 10:04:13 10° S visible
01 Oct ? 10:13:38 10° N 10:17:48 74° WNW 10:21:53 10° SSW visible
02 Oct ? 08:56:47 10° ENE 08:58:59 14° E 09:01:08 10° ESE visible
02 Oct ? 10:31:25 10° N 10:35:24 45° WNW 10:39:20 10° SW visible
03 Oct ? 09:13:33 10° NE 09:16:47 22° E 09:20:00 10° SE visible
03 Oct ? 10:49:22 10° N 10:52:59 29° WNW 10:56:31 10° SW visible
